Regional Weather Roundup
Issued by NWS

Home | Current Version | Previous Version | Text Only | Print | Product List | Glossary Off
Versions: 1 2 3 4 5 6 7 8 9 10 11 12 13 14 15 16 17 18 19 20 21 22 23 24 25 26 27 28 29 30 31 32 33 34 35 36 37 38 39 40 41 42 43 44 45 46 47 48 49 50

000
ASUS45 KBOU 292110
RWRCO

WEATHER ROUNDUP FOR COLORADO
NATIONAL WEATHER SERVICE DENVER/BOULDER CO
300 PM MDT MON JUN 29 2015

NOTE: "FAIR" INDICATES FEW OR NO CLOUDS BELOW 12000 FEET WITH NO
SIGNIFICANT WEATHER AND/OR OBSTRUCTIONS TO VISIBILITY.

COZ001>005-013-030-031-292200-
...NORTHWEST COLORADO...

CITY           SKY/WX    TMP DP  RH WIND       PRES   REMARKS
CRAIG          SUNNY     93  39  15 VRB5      30.24F
HAYDEN         SUNNY     88  39  18 SW8       30.26F
MEEKER         SUNNY     90  41  18 E13G18    30.25F
MOUNT WERNER   NOT AVBL
STEAMBOAT SPGS MOSUNNY   84  46  25 S5        30.29F
WALDEN         MOSUNNY   73  41  31 N10       30.42S
$$

COZ006>008-011-292200-
...WEST CENTRAL VALLEYS...

CITY           SKY/WX    TMP DP  RH WIND       PRES   REMARKS
GRAND JUNCTION MOSUNNY   94  42  16 VRB6      30.08F
MONTROSE       SUNNY     93  43  17 W6G17     30.18F
EAGLE          MOSUNNY   88  34  14 E7        30.25F
RIFLE          SUNNY     96  43  16 NW12      30.14F
DELTA          SUNNY     99  40  13 S9        30.11F
NUCLA          MOSUNNY   90  37  15 N3        30.22F
$$

COZ017>023-064>068-292200-
...SOUTHWEST COLORADO...

CITY           SKY/WX    TMP DP  RH WIND       PRES   REMARKS
DURANGO        TSTM      74  59  59 N5        30.25R
CORTEZ         SUNNY     92  41  17 MISG      30.17F
PAGOSA SPRINGS LGT RAIN  74  53  46 W8        30.33F
TELLURIDE      MOSUNNY   78  43  28 CALM      30.49F
WOLF CREEK PAS NOT AVBL
$$

COZ009-010-012-014-032>034-037-058>063-292200-
...CENTRAL COLORADO...

CITY           SKY/WX    TMP DP  RH WIND       PRES   REMARKS
ASPEN          MOSUNNY   85  41  21 N9G22     30.34F
BUENA VISTA    MOSUNNY   79  40  24 E13       30.35S
COPPER MTN     MOSUNNY   68  18  14 W23G31    30.72F
BERTHOUD PASS  FAIR      50  41  71 E13G25    30.78F
COTTONWOOD PAS NOT AVBL
GUNNISON       MOSUNNY   82  45  26 W12G17    30.34F
KREMMLING      SUNNY     88  23   9 N10G23    30.34F
LEADVILLE      PTSUNNY   71  31  22 N13G25    30.52F
MONARCH PASS   PTSUNNY   61  41  48 E7        30.80F
SALIDA         MOSUNNY   73  54  51 SE12G21   30.40S
SUNLIGHT       MOSUNNY   70  43  37 CALM      30.66F
WILKERSON PASS PTSUNNY   64  39  39 E10G21    30.69S
$$

COZ069>075-292200-
...SAN LUIS VALLEY/SANGRE DE CRISTO MOUNTAINS...

CITY           SKY/WX    TMP DP  RH WIND       PRES   REMARKS
ALAMOSA        SUNNY     82  40  22 VRB5      30.31F
LA VETA PASS   MOSUNNY   68  43  40 MISG      30.56F
SAGUACHE       PTSUNNY   72  50  46 W9        30.37S
$$

COZ035-036-038>040-292200-
...NORTHERN COLORADO FRONT RANGE...

CITY           SKY/WX    TMP DP  RH WIND       PRES   REMARKS
DENVER INTL AP MOSUNNY   87  49  26 NE14      30.23F
DMNS CITY PARK   N/A     85  46  25 NE6G13    30.23F
AURORA         MOSUNNY   86  51  30 VRB6      30.25F
FRONT RANGE AP MOSUNNY   84  50  30 NW6       30.24F
ERIE MUNI ARPT SUNNY     87  46  23 N5        30.21F
BOULDER MUN AP SUNNY     82  46  28 CALM      30.22F
CENTENNIAL     MOSUNNY   83  50  31 N7        30.26F
BROOMFIELD     NOT AVBL
FORT COLLINS   MOSUNNY   88  54  31 E3        30.19F
LONGMONT       MOSUNNY   89  48  24 CALM      30.23F
$$

COZ041-046-047-076>085-087-088-292200-
...PIKES PEAK/PALMER DIVIDE AND SOUTHERN FOOTHILLS...

CITY           SKY/WX    TMP DP  RH WIND       PRES   REMARKS
COLO. SPRINGS  MOSUNNY   79  53  40 S10       30.30F
A. F. ACADEMY  MOSUNNY   79  47  32 E7        30.30F
ELLICOTT       SUNNY    N/A N/A N/A S9        30.28F
FALCON         PTSUNNY   82  51  33 CALM      30.35F
FORT CARSON    SUNNY     80  55  41 SE7       30.27F
LIMON          SUNNY     81  56  42 VRB3      30.24F
MONUMENT HILL  SUNNY     73  50  43 N5        30.36F
TRINIDAD       SUNNY     86  49  27 E14G23    30.22F
$$

COZ042>045-048>051-090-091-292200-
...NORTHEAST COLORADO...

CITY           SKY/WX    TMP DP  RH WIND       PRES   REMARKS
GREELEY ARPT   MOSUNNY   88  52  29 NE3       30.19F
AKRON          SUNNY     86  54  33 VRB5      30.18F
BURLINGTON     MOSUNNY   85  50  29 VRB7      30.15F
WRAY           MOSUNNY   92  54  27 NE7       30.10F
STERLING       SUNNY     88  55  33 W3        30.12F
HOLYOKE        MOSUNNY   93  52  24 CALM      30.11F
FORT MORGAN    SUNNY     87 -23   1 S3        30.18F
$$

COZ086-089-092>099-292200-
...SOUTHEAST COLORADO...

CITY           SKY/WX    TMP DP  RH WIND       PRES   REMARKS
PUEBLO         SUNNY     88  51  28 E6G17     30.18F
LA JUNTA       SUNNY     88  51  28 SE7       30.15F
LAMAR          SUNNY     88  53  30 SW10      30.11F
SPRINGFIELD      N/A     83  48  29 SE8       30.16F
$$


USA.gov is the U.S. government's official web portal to all federal, state and local government web resources and services.